Location: Unspecified
(0.0000°N, 0.0000°E)
Time: 23:58:12
(UTC+00:00)

CZ-3B DEB - Visible Passes

Search period start: 17 May 2026 00:00
Search period end: 27 May 2026 00:00
Orbit: 662 x 42147 km, 24.6° (Epoch: 30 March)

Date Brightness Start Highest point End Pass type
(mag) Time Alt. Az. Time Alt. Az. Time Alt. Az.
17 May ? 19:58:09 10° WNW 20:17:26 45° NNE 08:11:42 10° SE visible
18 May ? 21:30:40 10° NW 01:56:00 80° NNW 09:42:59 10° SE visible
19 May ? 23:05:07 10° WNW 01:31:20 69° NW 11:13:58 10° SE visible
21 May ? 00:43:53 10° WNW 02:32:57 48° WNW 07:29:58 10° W visible
22 May ? 02:35:22 10° WNW 03:55:42 25° WNW 06:29:26 10° W visible
22 May ? 21:50:02 10° E 00:37:16 27° ESE 01:57:41 10° ESE visible
23 May ? 20:51:47 10° E 02:02:34 52° ESE 03:45:45 10° ESE visible
24 May ? 17:12:13 10° WNW 17:18:13 34° N 17:51:52 10° ENE visible
25 May ? 18:43:25 10° WNW 18:55:55 39° NNE 06:56:29 10° SE visible
